TITAN 4B R/B

Last updated on Wed Sep 17 2025 00:02:15 GMT+0000 (Coordinated Universal Time)

1 26474U 00047B 25259.47307703 .00003395 00000+0 22462-3 0 9996 2 26474 67.9903 169.7562 0047277 239.9466 119.6989 15.07768497366632
UTC large
Height (km)
Speed (km/s)
/
Latitude / Longitude
Inclination (degrees)
Orbital Period (minutes)
Azimuth
Elevation
Range (km)
Doppler Factor

Next 0 passes for location: London (51.5072 / 0.1276)

Sorry there are no passes over London.